This is the latest recevied weather packets stored in our database for station/object DB0MOD. If no packets are shown the sender has not sent any weather packets the latest 1 day(s).
| Time | Temp. | Humidity | Pressure | Rain* | Wind** | Luminosity | Snow |
|---|---|---|---|---|---|---|---|
| 1777997643 | 13.89° C | 17% | 1008.2 hPa | 0 mm | 0 m/s | - | - |
| 1777997343 | 14.44° C | 24% | 1008.3 hPa | 0 mm | 0 m/s | - | - |
| 1777997043 | 15° C | 27% | 1008.3 hPa | 0 mm | 0 m/s | - | - |
| 1777996743 | 15.56° C | 29% | 1008.4 hPa | 0 mm | 0 m/s | - | - |
| 1777996443 | 15.56° C | 32% | 1008.4 hPa | 0 mm | 0 m/s | - | - |
| 1777996143 | 16.11° C | 36% | 1008.3 hPa | 0 mm | 0 m/s | - | - |
| 1777995843 | 16.67° C | 39% | 1008.2 hPa | 0 mm | 0 m/s | - | - |
| 1777995543 | 17.22° C | 41% | 1008.3 hPa | 0 mm | 0 m/s | - | - |
| 1777995243 | 17.78° C | 41% | 1008.4 hPa | 0 mm | 0 m/s | - | - |
| 1777994943 | 18.33° C | 41% | 1008.3 hPa | 0 mm | 0 m/s | - | - |
| 1777994643 | 18.89° C | 40% | 1008.3 hPa | 0 mm | 0 m/s | - | - |
| 1777994343 | 18.89° C | 40% | 1008.3 hPa | 0 mm | 0 m/s | - | - |
| 1777994043 | 18.89° C | 42% | 1008.3 hPa | 0 mm | 0 m/s | - | - |
| 1777993743 | 19.44° C | 42% | 1008.3 hPa | 0 mm | 0 m/s | - | - |
| 1777993443 | 19.44° C | 42% | 1008.3 hPa | 0 mm | 0 m/s | - | - |
| 1777993143 | 19.44° C | 42% | 1008.1 hPa | 0 mm | 0 m/s | - | - |
| 1777992843 | 19.44° C | 42% | 1008.1 hPa | 0 mm | 0 m/s | - | - |
| 1777992543 | 19.44° C | 41% | 1008.3 hPa | 0 mm | 0 m/s | - | - |
| 1777992243 | 19.44° C | 41% | 1008.1 hPa | 0 mm | 0 m/s | - | - |
| 1777991943 | 19.44° C | 41% | 1008.1 hPa | 0 mm | 0 m/s | - | - |
| 1777991643 | 19.44° C | 39% | 1008.2 hPa | 0 mm | 0 m/s | - | - |
| 1777991343 | 18.89° C | 40% | 1008.4 hPa | 0 mm | 0 m/s | - | - |
| 1777991043 | 19.44° C | 42% | 1008.3 hPa | 0 mm | 0 m/s | - | - |
| 1777990743 | 20° C | 41% | 1008.2 hPa | 0 mm | 0 m/s | - | - |
| 1777990443 | 20° C | 38% | 1008.3 hPa | 0 mm | 0 m/s | - | - |
* Rain latest hour (hover to see other rain measurements)
** Current wind speed in m/s (hover to see current wind gust speed)